Location: Biltmore Gardens
(41.6070°N, 83.4666°W)
Time: 14:11:52
(UTC+00:00)

CZ-2C R/B - Pass Details

Date: 14 July 2020
Orbit: 667 x 785 km, 98.2° (Epoch: 04 August)

Event Time Altitude Azimuth Distance (km) Brightness Sun altitude
Rises 08:53:16 0° 24° (NNE) 3,116 7.1 -12.6°
Reaches altitude 10° 08:55:51 10° 35° (NE) 2,173 6.3 -12.2°
Maximum altitude 08:59:56 28° 95° (E) 1,269 4.1 -11.7°
Drops below altitude 10° 09:03:55 10° 155° (SSE) 2,109 4.6 -11.1°
Sets 09:06:22 0° 167° (SSE) 3,007 5.3 -10.8°
